Theta_e
299 299 299 299 299 300 300 301 301 303 306 307 308 310 310 312 313 313 313 313 311 309 305 301 300 298 296 295 294 293 292 291 291 289 288 289 290 290 291 292 292 292 292
296 297 297 297 297 297 298 299 300 301 302 304 306 307 308 309 311 312 311 311 309 307 305 301 299 296 294 293 294 292 291 291 291 288 287 284 286 288 290 290 291 290 290
294 295 295 295 295 295 295 297 298 299 300 301 303 303 303 301 301 305 306 308 308 306 304 301 298 296 294 294 293 293 292 288 289 291 289 285 284 284 287 288 289 289 288
294 294 294 294 294 294 295 295 296 296 299 299 300 299 299 297 298 300 303 305 306 305 303 301 299 296 294 293 292 293 293 290 289 288 291 289 289 285 281 285 287 287 288
293 292 292 293 294 294 293 293 294 295 295 296 296 296 296 297 297 298 297 298 300 301 302 301 298 297 295 292 292 291 290 291 289 290 286 286 286 287 284 280 282 285 286
292 293 293 293 292 292 291 292 292 292 293 294 293 293 292 292 293 294 294 295 296 297 298 299 298 297 295 292 291 291 290 290 290 290 287 287 286 285 285 284 281 282 284
291 291 291 291 291 290 290 291 290 289 290 291 291 291 291 291 291 291 292 292 293 294 295 295 295 295 295 293 292 290 289 290 290 289 290 288 288 288 287 286 283 282 283
290 290 290 290 289 290 290 290 289 288 288 289 289 290 290 291 291 291 291 291 292 292 293 294 294 294 294 293 291 289 289 289 291 288 288 288 289 289 287 286 284 281 280
289 289 290 289 288 288 289 289 288 287 287 288 289 288 288 288 288 289 289 289 290 292 291 291 291 292 292 292 291 288 288 288 288 290 289 289 288 288 288 287 286 286 279
287 287 288 288 287 286 286 287 287 285 285 286 287 287 287 287 287 287 286 287 288 289 288 288 288 289 290 290 289 288 287 287 287 288 287 288 287 287 287 288 286 286 287
285 285 286 288 287 285 285 285 286 285 284 285 286 285 285 285 285 284 285 285 286 286 287 287 286 287 287 287 287 287 287 286 286 286 285 287 286 289 287 286 286 286 285
284 284 285 286 287 285 283 284 284 284 284 285 285 285 284 284 282 282 283 283 284 284 285 286 285 285 286 285 286 286 287 285 285 285 285 285 287 286 285 286 287 288 285
283 283 283 284 284 285 284 283 283 284 284 283 282 282 282 282 281 280 281 282 282 282 282 283 283 283 284 284 285 285 285 285 285 285 285 286 284 286 286 285 286 286 285
282 282 281 283 283 283 283 283 283 283 283 282 282 281 281 281 281 280 280 280 281 280 280 281 282 282 283 283 284 284 285 285 285 285 286 286 285 285 285 285 285 285 284
282 281 280 280 282 282 282 283 283 282 281 280 280 279 280 280 279 279 279 279 280 280 279 280 280 281 281 283 283 283 284 283 284 284 285 285 285 287 287 285 285 285 285
281 282 281 281 281 282 282 283 283 281 280 278 279 280 280 280 279 279 278 278 278 278 278 278 279 279 280 284 286 286 283 284 284 283 284 284 285 285 289 290 290 288 285
281 280 281 281 281 281 282 281 282 280 279 280 279 279 279 278 279 279 278 277 276 276 277 277 277 277 279 283 284 286 283 283 283 284 284 284 284 284 284 287 290 290 291
280 280 281 281 281 281 281 280 280 279 279 278 277 277 278 278 279 278 278 277 276 275 275 275 276 276 277 282 283 284 282 282 282 283 283 283 284 284 284 284 283 284 286
281 281 281 282 281 279 279 278 278 278 277 277 277 277 276 275 276 276 276 276 276 275 274 275 274 274 275 279 280 281 279 280 281 282 283 283 283 285 287 284 282 282 283
281 281 280 280 278 278 277 276 275 275 274 275 275 274 274 273 272 273 274 275 274 274 274 273 273 273 272 276 278 278 277 277 279 280 282 284 283 286 287 285 284 281 282
279 278 277 277 276 276 274 273 272 271 272 271 270 270 269 268 268 268 269 269 269 270 270 270 270 270 271 271 276 277 276 276 277 278 279 281 285 287 287 288 285 283 284
276 276 274 274 274 273 271 269 268 270 269 267 266 264 263 263 264 263 263 264 265 265 265 266 266 268 270 272 274 276 277 278 277 277 280 281 284 286 286 287 288 288 287
275 273 270 270 270 270 268 266 267 267 265 262 261 261 261 261 262 261 261 261 261 261 262 263 263 264 267 268 272 274 275 277 276 278 281 283 284 285 285 287 288 286 285
272 270 267 267 266 266 267 263 265 264 261 259 260 260 260 260 260 261 261 260 260 260 260 260 261 262 263 264 266 268 269 271 274 278 280 281 282 283 283 283 285 285 284
270 268 266 266 264 265 263 261 263 261 259 259 260 259 260 259 260 261 260 261 262 263 262 263 263 263 263 265 269 269 268 269 271 273 276 277 276 276 279 281 282 282 283
266 265 264 263 262 261 261 260 259 259 258 259 259 259 259 259 260 259 260 265 267 268 269 270 269 267 271 272 272 273 273 274 275 272 271 273 275 274 277 279 279 279 280
Wind_Speed
16 18 18 16 17 18 16 14 10 8 5 3 2 1 2 2 1 2 4 5 6 6 6 4 5 7 10 11 9 5 7 3 5 5 2 1 2 3 3 3 3 2 2
16 16 15 14 15 15 14 14 13 11 6 4 2 2 1 0 3 3 3 4 7 7 5 5 4 5 3 6 9 7 5 4 8 5 4 3 3 4 5 5 5 7 4
14 13 14 14 13 15 14 15 15 13 10 9 5 4 4 4 4 3 2 1 3 5 6 7 6 6 5 7 7 8 10 5 6 7 7 4 6 2 2 5 5 6 4
10 11 12 15 15 14 12 14 14 14 12 12 7 7 3 2 1 2 3 3 4 3 5 6 6 6 5 6 6 6 8 6 8 1 7 1 5 6 3 3 4 5 6
8 10 10 11 10 9 11 10 12 14 13 12 11 7 7 5 3 3 6 4 1 2 3 4 6 6 5 5 7 6 7 6 6 8 3 1 2 1 4 4 4 4 5
8 9 8 7 7 7 7 8 11 13 13 12 12 9 8 7 6 6 5 3 2 2 4 5 5 6 6 7 6 7 8 7 6 6 5 5 6 5 4 3 3 4 5
7 8 9 9 10 12 12 11 13 13 11 10 9 10 10 9 7 7 5 6 5 2 4 6 6 4 5 5 6 7 7 9 8 8 10 5 6 4 4 4 3 3 3
7 7 8 7 8 9 11 11 12 10 10 9 9 8 8 5 6 8 7 6 5 5 6 6 6 7 7 6 6 4 5 7 9 9 7 6 7 5 4 6 6 1 2
7 7 7 7 7 7 7 8 9 9 9 8 7 7 8 8 7 8 7 7 8 9 9 8 7 6 6 7 6 5 6 7 7 11 9 8 5 5 6 4 5 7 6
6 5 5 7 6 6 5 7 6 6 6 7 8 7 6 6 6 5 7 7 8 9 9 8 8 8 7 6 6 5 6 7 6 6 8 9 5 7 5 6 5 4 8
4 4 5 6 7 6 6 5 5 6 6 6 5 4 5 6 7 9 8 7 6 7 8 9 8 8 7 7 7 7 7 8 8 7 8 11 8 10 7 6 6 6 4
5 5 5 4 4 4 4 4 4 3 2 3 4 5 3 5 6 7 7 8 10 8 6 6 6 7 8 7 7 8 7 8 9 8 9 11 8 12 7 8 13 13 8
4 4 4 3 4 4 3 3 2 0 1 1 3 5 4 4 3 4 4 5 6 6 7 8 8 8 6 7 8 7 8 8 9 10 10 12 9 13 10 9 12 11 9
2 0 2 3 3 3 4 4 5 5 5 4 5 6 5 5 4 3 5 6 6 7 7 8 7 7 8 9 8 8 10 10 11 11 12 12 12 14 13 12 13 11 10
7 6 3 2 4 4 4 4 3 4 3 5 7 8 7 7 7 6 6 6 6 6 6 8 9 8 7 7 8 9 9 10 11 11 12 13 13 17 16 11 13 12 12
6 4 5 5 6 6 5 6 5 5 3 5 6 6 7 8 8 6 6 6 8 7 7 10 9 11 9 16 20 17 10 11 12 13 13 12 14 14 22 24 27 18 16
4 5 6 6 6 4 3 5 6 4 5 7 8 10 9 10 12 11 10 9 9 8 11 11 10 13 13 21 25 23 12 12 13 14 13 13 11 13 13 20 27 28 28
3 5 4 5 4 2 3 4 6 6 6 7 7 8 8 10 11 11 14 14 11 12 12 13 13 14 15 26 26 26 16 14 15 15 15 16 16 15 15 13 15 19 19
4 4 3 3 5 6 5 4 4 5 6 9 9 8 7 10 13 15 17 16 14 15 16 15 17 16 17 27 29 26 16 16 18 15 16 15 17 21 25 17 16 16 18
2 5 6 5 6 5 5 4 6 7 8 9 11 11 11 12 14 16 17 15 14 16 15 19 18 21 21 31 34 29 14 17 15 17 17 23 20 26 27 18 16 17 20
5 6 6 5 5 5 5 7 7 8 9 10 12 13 13 14 15 17 15 16 18 19 19 20 20 22 21 24 37 37 19 16 16 15 14 12 25 27 29 30 17 20 14
6 5 3 2 3 4 5 9 9 10 11 11 12 13 13 11 12 15 15 16 16 18 18 19 19 16 19 27 31 36 35 31 19 19 15 14 25 27 27 23 29 31 25
2 2 3 6 4 4 4 9 12 13 13 12 13 13 13 12 13 14 15 13 13 13 14 14 15 15 14 15 31 36 35 34 24 17 21 29 28 29 25 28 28 25 14
2 2 4 6 7 3 6 5 11 12 11 13 14 13 13 14 13 11 11 12 12 12 13 14 15 15 15 14 14 15 15 24 20 25 19 16 20 23 22 16 18 14 12
3 4 4 7 9 8 9 7 10 9 12 13 13 13 11 13 13 13 12 12 13 15 15 14 15 15 15 13 25 24 15 13 20 22 14 11 11 10 11 13 12 12 12
3 4 5 7 9 9 10 10 6 7 11 13 12 12 12 12 12 13 13 22 29 32 33 35 29 17 31 38 37 36 35 35 35 19 17 14 10 11 10 10 10 11 13
Wind_Direction
60 49 41 25 20 18 14 10 17 7 79 83 104 104 172 162 142 155 180 174 166 180 180 179 176 169 173 178 175 161 170 174 150 101 56 355 180 183 206 177 165 164 192
49 45 42 38 28 21 18 13 12 19 31 44 57 83 110 221 160 161 169 185 165 170 177 177 186 181 174 187 182 164 159 162 170 147 124 186 309 263 215 183 181 181 182
47 40 35 34 34 27 27 24 17 18 15 12 29 32 42 30 33 20 49 272 154 171 178 189 185 179 177 191 196 188 177 166 203 186 147 141 215 140 238 222 201 184 183
59 51 41 37 30 22 19 27 26 21 18 16 15 33 55 73 345 232 182 164 167 192 194 200 205 189 187 193 196 199 197 160 187 250 241 250 152 165 184 241 216 206 191
62 58 51 49 35 31 23 25 29 29 15 21 26 24 17 359 347 27 59 28 24 257 267 239 213 217 199 210 196 195 203 207 179 199 141 128 258 289 131 185 214 214 201
64 60 58 51 45 33 42 36 37 26 25 23 17 22 18 4 2 4 2 351 200 207 235 266 261 240 220 202 206 209 202 204 212 202 207 178 169 195 172 140 175 201 240
62 50 43 38 32 32 29 34 30 27 26 12 26 21 10 2 11 16 6 1 339 311 231 220 234 235 243 239 217 212 206 211 217 201 218 210 207 170 173 128 175 160 223
65 60 47 40 40 38 30 27 28 28 19 9 15 18 8 16 22 13 11 359 351 336 348 309 250 228 231 242 231 226 223 224 226 221 212 211 220 197 182 179 144 123 193
65 66 67 62 53 44 43 35 33 15 5 1 16 24 17 11 16 24 26 16 356 344 342 326 317 291 247 231 241 232 234 233 229 232 230 222 214 213 207 191 171 176 172
87 93 108 104 86 73 60 44 56 33 19 10 359 7 12 5 1 27 30 9 352 349 338 339 335 327 306 263 244 242 236 232 235 233 235 233 221 219 210 209 199 191 204
114 81 57 50 66 51 55 71 57 44 9 357 336 354 1 353 356 22 18 5 343 336 340 339 333 322 315 296 267 250 241 238 234 233 233 239 227 231 221 208 200 206 170
68 72 73 67 57 56 35 29 27 76 8 334 326 330 15 360 16 19 357 343 337 335 319 321 318 317 310 303 290 279 265 242 244 236 234 240 235 238 218 212 221 219 203
122 88 78 57 51 29 42 16 348 271 159 12 323 319 343 356 6 10 330 303 294 298 313 324 328 323 301 294 292 280 272 259 249 244 239 240 222 237 235 222 222 221 212
153 36 44 22 6 4 357 352 344 344 341 357 335 329 323 324 323 307 293 293 296 302 308 312 302 294 300 299 289 280 275 270 264 256 251 249 230 233 231 229 226 222 217
210 204 186 279 290 296 299 298 294 312 326 332 322 309 317 319 313 307 294 291 294 286 293 294 292 291 287 278 283 282 284 280 277 264 258 257 249 238 225 226 231 217 213
353 297 197 220 239 241 261 281 285 296 319 310 289 293 306 304 303 289 277 277 285 280 282 287 278 284 279 283 290 288 275 267 267 267 261 255 257 253 248 240 235 218 215
298 320 293 244 230 221 259 289 285 308 308 291 290 300 306 303 305 303 298 289 289 290 287 280 274 277 274 281 286 284 276 265 259 259 265 265 253 252 255 253 248 241 227
318 291 287 299 270 78 18 5 348 326 290 281 277 279 287 288 288 289 289 289 290 289 286 284 282 281 279 280 281 281 275 270 264 256 251 250 256 247 240 241 248 251 245
285 268 280 18 44 44 16 348 314 294 292 296 295 297 298 299 298 292 289 286 284 285 287 284 287 283 280 282 283 282 277 267 264 259 254 249 251 249 246 239 235 233 240
315 27 31 44 44 18 13 348 314 313 308 314 321 320 316 309 305 303 300 297 292 285 285 283 281 283 283 284 284 283 276 269 263 259 256 247 246 250 246 243 234 235 236
65 44 31 26 22 16 356 323 320 312 322 326 316 312 314 311 304 300 299 298 295 291 287 283 282 280 277 281 283 281 274 264 264 260 256 248 246 250 247 243 235 236 231
41 34 20 28 9 1 353 321 317 322 319 313 312 308 304 300 297 295 294 291 290 286 285 284 281 277 278 275 280 284 280 274 264 255 253 252 252 252 253 250 243 239 235
55 67 23 340 354 360 352 322 320 321 318 314 306 301 298 296 293 293 293 292 287 283 283 282 285 287 286 284 287 287 288 284 278 270 256 252 254 258 258 255 250 238 230
28 41 16 328 318 331 327 303 313 315 312 306 304 303 300 298 292 286 287 288 288 286 285 285 282 281 279 280 282 283 294 300 303 276 263 256 257 260 255 252 248 229 222
26 17 332 312 311 319 315 310 310 309 305 304 303 304 299 297 297 288 286 281 276 276 279 275 276 280 278 273 276 276 270 265 277 285 281 250 243 246 251 243 235 217 217
359 320 317 311 305 311 310 309 299 296 297 301 306 301 300 298 296 294 291 285 289 292 291 291 289 285 284 291 290 287 283 278 276 270 271 269 259 235 237 246 228 212 213